www.pogodaiklimat.ru

Погода и климат >> Архив погоды >> Доминиканская Республика >> La Romana Int Airport


ПОГОДА в La Romana Int Airport

  • Прогноз погоды в La Romana Int Airport
  • Монитор погоды в La Romana Int Airport
  • Климат города

АРХИВ ПОГОДЫ в La Romana Int Airport

Время (UTC), дата Ветер
(напр.,м/с)
 
Видим.   Явления Облачность Т
(С)
Тd
(С)
f
(%)
Тe
(С)
Тes
(С)
Комфортность P
(гПа)
Po
(гПа)
Тmin
(С)
Tmax
(С)
R
(мм)
R24
(мм)
S
(см)
00 19.02 штиль 0 16 км 5/3 540 м
[Cu med, cong Ac und]
+23.2 +21.5 90 +31 +31 очень
душно
1019.4 1019.0 +29.5
03 19.02 штиль 0 16 км 4/3 480 м
[Cu med, cong Ac und]
+20.6 +20.3 98 +25 +25 комфорт 1020.5 1021.0
12 19.02 штиль 0 16 км 8/5 480 м
[Cu Sc Ac As]
+20.4 +20.1 98 +24 +25 комфорт 1020.8 1021.0 +19.0 +29.5
15 19.02 В 5 16 км {дождь} 5/5 600 м
[Cu med, cong]
+27.2 +20.0 65 +33 +37 очень
душно
1022.0 1022.0 1
18 19.02 В 4 16 км {дождь} 8/8 660 м
[Cu med, cong]
+28.3 +21.2 65 +36 +38 очень
душно
1020.5 1021.0 +19.0 +29.0
21 19.02 В 4 16 км 6/6 600 м
[Cu med, cong Ac und]
+26.6 +20.7 70 +33 +34 очень
душно
1019.5 1020.0
00 20.02 штиль 0 16 км {дождь} 6/4 480 м
[Cu med, cong Ac As]
+24.0 +21.3 85 +30 +30 очень
душно
1020.5 1021.0 +19.0 +29.2 0.0
03 20.02 штиль 0 16 км 3/3 480 м
[Cu med, cong]
+21.7 +21.3 98 +28 +28 душно 1022.0 1022.0
12 20.02 штиль 0 16 км 6/4 480 м
[Cu Sc Ac As]
+21.0 +20.3 96 +26 +27 душно 1021.5 1022.0 +19.2 +29.2 1
15 20.02 В 6 16 км 4/4 600 м
[Cu med, cong]
+28.0 +21.5 68 +36 +39 очень
душно
1023.0 1023.0
18 20.02 СВ 3 16 км {дождь} 5/5 600 м
[Cu med, cong]
+27.6 +21.5 69 +35 +41 очень
душно
1021.5 1022.0 +19.2 +29.0
21 20.02 СВ 6 16 км 4/4 600 м
[Cu med, cong]
+28.6 +20.8 63 +36 +36 очень
душно
1020.0 1020.0
03 21.02 штиль 0 16 км 3/3 540 м
[Cu med, cong]
+21.3 +21.1 99 +27 +27 душно 1022.5 1023.0
12 21.02 штиль 0 16 км 5/5 480 м
[Sc]
+22.0 +22.0 100 +29 +30 очень
душно
1021.5 1022.0 +19.5 +29.0 2
15 21.02 В 6 16 км 5/5 600 м
[Sc]
+28.4 +22.5 70 +37 +40 очень
душно
1022.7 1023.0
18 21.02 В 4 16 км {дождь} 5/5 540 м
[Cb cap]
+22.6 +21.4 93 +30 +35 очень
душно
1021.8 1022.0 +19.5 +29.2 5
21 21.02 СВ 3 16 км 6/5 540 м
[Cb cap As op]
+25.7 +21.7 79 +33 +34 очень
душно
1020.2 1020.0
00 22.02 В 3 16 км 5/5 540 м
[Cb cap]
+22.5 +20.6 89 +29 +29 очень
душно
1021.5 1022.0 +19.5 +29.2
03 22.02 штиль 0 16 км 4/4 540 м
[Sc]
+21.6 +21.0 96 +27 +27 душно 1023.0 1023.0
12 22.02 СВ 3 16 км 5/5 480 м
[Sc]
+21.5 +20.8 96 +20.0 +29.2
15 22.02 В 8 16 км 5/5 600 м
[Cu Sc]
+27.1 +22.9 78 +36 +37 очень
душно
1023.6 1024.0
18 22.02 СВ 8 16 км 4/4 660 м
[Cu Sc]
+28.8 +23.3 72 +39 +40 очень
душно
1021.8 1022.0 +20.0 +29.2
21 22.02 ЮВ 4 16 км 8/6 600 м
[Cu Sc]
+27.0 +22.2 75 +35 +36 очень
душно
1020.0 1020.0
00 23.02 СВ 4 16 км 3/3 540 м
[Cu med, cong]
+21.9 +19.9 88 +28 +28 душно 1021.0 1021.0 +20.0 +29.2
03 23.02 штиль 0 16 км 3/3 480 м
[Cu med, cong]
+20.6 +19.7 95 +25 +25 комфорт 1022.1 1022.0
12 23.02 СВ 4 16 км 3/3 480 м
[Cu med, cong]
+20.4 +19.3 93 +24 +25 комфорт 1021.0 1021.0 +17.2 +29.2
15 23.02 В 5 16 км 5/5 540 м
[Cu med, cong]
+27.4 +22.3 74 +36 +40 очень
душно
1021.8 1022.0
18 23.02 В 5 16 км 5/5 660 м
[Cu Sc]
+29.2 +22.1 66 +38 +42 очень
душно
1019.6 1020.0 +17.2 +29.4
21 23.02 СВ 4 16 км 4/4 600 м
[Cu med, cong]
+27.1 +21.4 71 +34 +35 очень
душно
1018.2 1018.0
00 24.02 ЮЗ 2 16 км 3/3 480 м
[Cu med, cong]
+22.4 +20.4 88 +29 +29 очень
душно
1019.2 1019.0 +17.2 +29.4
03 24.02 В 3 16 км 3/3 480 м
[Cu med, cong]
+19.6 +19.0 96 +23 +23 комфорт 1020.2 1020.0
12 24.02 штиль 0 16 км 3/3 480 м
[Cu med, cong]
+19.5 +19.0 97 +22 +24 комфорт 1019.0 1019.0 +19.2 +29.4
15 24.02 В 6 16 км 8/8 540 м
[Cb cap Cs]
+26.4 +22.0 77 +34 +35 очень
душно
1020.2 1020.0
18 24.02 В 6 7000 м слабый дождь 9/9 420 м
[Cb cap Cs]
+23.6 +22.7 95 +31 +32 очень
душно
1018.8 1019.0 +19.2 1
21 24.02 СВ 8 16 км {гроза, дождь} 8/5 540 м
[Cb cap Cs]
+26.6 +21.3 73 +34 +34 очень
душно
1017.4 1017.0
00 25.02 штиль 0 16 км {гроза, дождь} 5/3 480 м
[Cb cap Cs]
+23.6 +21.0 85 +30 +30 очень
душно
1018.7 1019.0 +19.2
03 25.02 штиль 0 16 км зарница {гроза} 6/6 450 м
[Cb cap Cs]
+21.0 +20.1 95 +26 +26 душно 1019.8 1020.0
06 25.02 штиль 0 16 км зарница {гроза} 6/6 450 м
[Cb cap Cs]
+21.0 +20.1 95 +26 +26 душно 1019.8 1020.0
12 25.02 штиль 0 16 км в посл. час гроза 4/3 300 м
[Cb cap Ac trans Cs]
+20.1 +19.0 93 +23 +25 комфорт 1019.0 1019.0 0.8
15 25.02 СВ 6 16 км зарница {гроза} 5/5 600 м
[Cb cap Cs]
+26.6 +21.6 74 +34 +37 очень
душно
1020.2 1020.0
18 25.02 В 6 16 км зарница {гроза} 8/8 540 м
[Cb cap Ac trans Cs]
+27.2 +21.4 71 +35 +36 очень
душно
1018.3 1018.0

 

Местоположение метеостанции La Romana Int Airport (Доминиканская Республика): широта 18.45 долгота -68.92 высота над уровнем моря 94 м.

В архиве по умолчанию представлена погода в La Romana Int Airport за последнюю неделю. Архивные данные за месяц целиком и за предыдущие месяцы, начиная с января 2011 года, Вы можете получить, выбрав интересующий диапазон дат из раскрывающегося списка и нажав кнопку "Ввод!".

Внимание! Время в таблицах - всемирное. Для получения местного времени необходимо прибавить поправку, которая в La Romana Int Airport равна -4 ч.

Смотрите также архив погоды в соседних городах и на ближайших метеорологических станциях:

Погода в Punta Cana (Доминиканская Республика) (61 км)
Погода в Las Americas (Доминиканская Республика) (78 км)
Погода в Sabana De La Mar (Доминиканская Республика) (82 км)
Погода в Santo Domingo (Доминиканская Республика) (101 км)
Погода в Santiago (Доминиканская Республика) (218 км)
Погода в Puerto Plata (Доминиканская Республика) (224 км)
Погода в Barahona (Доминиканская Республика) (232 км)
Погода в Charlotte Amalie St. Thomas (Виргинские Острова) (418 км)
Погода в Punta de Maisi (Куба) (584 км)
Погода в Juliana Airport (Нидерландские Антилы) (616 км)

Пояснения к столбцам:

Ветер - указаны скорость ветра в м/с - средняя за 10 мин, порывы в срок и между сроками (в фигурных скобках) и направление, откуда дует ветер: С - северный, СВ - северо-восточный, В - восточный, ЮВ - юго-восточный, Ю - южный, ЮЗ - юго-западный, З - западный, СЗ - северо-западный.
Видимость - горизонтальная дальность видимости в метрах или километрах. При видимости от 1 до 10 км при отсутствии осадков обычно наблюдается дымка, при ухудшении видимости до 1 км и менее - туман. В сухую погоду видимость может ухудшаться дымом, пылью или мглою.
Явления - указаны атмосферные явления, наблюдавшиеся в срок или в последний час перед сроком; фигурными скобками обозначены явления, наблюдавшиеся между сроками (за 1-3 часа до срока); квадратными скобками обозначены град или гололедные отложения с указанием их диаметра в мм.
Облачность - указаны через наклонную черту общая и нижняя облачность в баллах и высота нижней границы облаков в метрах; квадратными скобками обозначены формы облаков: Ci - перистые, Cs - перисто-слоистые, Cc - перисто-кучевые, Ac - высококучевые, As - высокослоистые, Sc - слоисто-кучевые, Ns - слоисто-дождевые, Cu - кучевые, Cb - кучево-дождевые. Подробнее классификацию облаков см. в Атласе облаков (PDF).
T - Температура воздуха - температура, измеренная на высоте 2 м над землей.
Td - Температура точки росы - температура, при понижении до которой содержащийся в воздухе водяной пар достигнет насыщения.
f - Относительная влажность воздуха - влажноcть воздуха, измеренная на высоте 2 м над землей.
Te - Эффективная температура - температура, которую ощущает одетый по сезону человек в тени. Характеристика душности погоды. При расчете учитывается влияние влажности воздуха и скорости ветра на теплоощущения человека.
Tes - Эффективная температура на солнце - температура, которую ощущает человек, с поправкой на солнечный нагрев. Характеристика знойности погоды. Зависит от высоты солнца над горизонтом, облачности и скорости ветра. Ночью, в пасмурную погоду, а также при ветре 12 м/с и более поправка равна нулю.
P - Атмосферное давление - приведенное к уровню моря атмосферное давление.
Po - Атмосферное давление - измеренное на уровне метеостанции атмосферное давление.
Tmin - Минимальная температура - минимум температуры воздуха на высоте 2 м над землей.
Tmax - Максимальная температура - максимум температуры воздуха на высоте 2 м над землей.
R - Количество осадков - Количество выпавших осадков за период времени, мм. При наведении курсора мыши на число - период времени, за который выпало указанное количество осадков.
R24 - Количество осадков - Количество выпавших осадков за 24 часа, мм.
S - Снежный покров - Высота снежного покрова, см. При наведении курсора мыши на число - состояние снежного покрова и степень покрытия местности в баллах.